This is the latest recevied weather packets stored in our database for station/object K1WJY. If no packets are shown the sender has not sent any weather packets the latest 10 day(s).
| Time | Temp. | Humidity | Pressure | Rain* | Wind** | Luminosity | Snow |
|---|---|---|---|---|---|---|---|
| 1777318544 | 14.44° C | 61% | 1026.9 hPa | 0 mm | - | 524 W/m² | - |
| 1777318241 | 14.44° C | 60% | 1026.6 hPa | 0 mm | - | 501 W/m² | - |
| 1777317938 | 14.44° C | 60% | 1026.5 hPa | 0 mm | - | 508 W/m² | - |
| 1777317635 | 14.44° C | 62% | 1026.7 hPa | 0 mm | - | 559 W/m² | - |
| 1777317333 | 14.44° C | 59% | 1026.9 hPa | 0 mm | - | 562 W/m² | - |
| 1777317027 | 14.44° C | 60% | 1026.7 hPa | 0 mm | - | 564 W/m² | - |
| 1777316725 | 14.44° C | 59% | 1026.7 hPa | 0 mm | - | 574 W/m² | - |
| 1777316421 | 15° C | 59% | 1026.8 hPa | 0 mm | - | 586 W/m² | - |
| 1777316118 | 15.56° C | 58% | 1026.6 hPa | 0 mm | - | 581 W/m² | - |
| 1777315817 | 15° C | 60% | 1026.5 hPa | 0 mm | - | 593 W/m² | - |
| 1777315515 | 15° C | 59% | 1026.5 hPa | 0 mm | - | 603 W/m² | - |
| 1777315212 | 15° C | 59% | 1026.7 hPa | 0 mm | - | 613 W/m² | - |
| 1777314909 | 15° C | 60% | 1026.6 hPa | 0 mm | - | 581 W/m² | - |
| 1777314605 | 15° C | 58% | 1026.9 hPa | 0 mm | - | 598 W/m² | - |
| 1777314302 | 16.11° C | 59% | 1026.8 hPa | 0 mm | - | 614 W/m² | - |
| 1777313999 | 15.56° C | 61% | 1026.9 hPa | 0 mm | - | 628 W/m² | - |
| 1777313696 | 15.56° C | 61% | 1026.5 hPa | 0 mm | - | 611 W/m² | - |
| 1777313394 | 16.11° C | 60% | 1026.8 hPa | 0 mm | - | 636 W/m² | - |
| 1777313090 | 15.56° C | 61% | 1026.7 hPa | 0 mm | - | 655 W/m² | - |
| 1777312786 | 15.56° C | 61% | 1026.7 hPa | 0 mm | - | 666 W/m² | - |
| 1777312483 | 15.56° C | 63% | 1026.8 hPa | 0 mm | - | 679 W/m² | - |
| 1777312180 | 15° C | 62% | 1026.8 hPa | 0 mm | - | 657 W/m² | - |
| 1777311878 | 15° C | 64% | 1026.9 hPa | 0 mm | - | 642 W/m² | - |
| 1777311575 | 15.56° C | 62% | 1027 hPa | 0 mm | - | 587 W/m² | - |
| 1777311272 | 15.56° C | 58% | 1026.9 hPa | 0 mm | - | 609 W/m² | - |
* Rain latest hour (hover to see other rain measurements)
** Current wind speed in m/s (hover to see current wind gust speed)